Blair, NE

12:24 AM CDT on August 24, 2017 (GMT -0500)
Blair Municipal

Weather History for KBTA - March, 2014

Change the Weather History Date:

Tuesday, March 18, 2014

  Actual Average (KOMA) Record (KOMA)
Temperature  
Mean Temperature 42 °F -  
Max Temperature 53 °F 51 °F 85 °F (1921)
Min Temperature 32 °F 30 °F -8 °F (1923)
Degree Days  
Heating Degree Days 22    
Moisture  
Dew Point 29 °F    
Average Humidity 59    
Maximum Humidity 92    
Minimum Humidity 40    
Precipitation  
Precipitation 0.00 in - - ()
Sea Level Pressure  
Sea Level Pressure 29.51 in    
Wind  
Wind Speed 15 mph (East)    
Max Wind Speed 28 mph    
Max Gust Speed 38 mph    
Visibility 9 miles    
Events Rain , Snow    
Averages and records for this station are not official NWS values.
T = Trace of Precipitation, MM = Missing Value Source: NWS Daily Summary

Daily Weather History Graph

Daily Weather History Graph

Search for Another Location

Airport or City:

Trip Planner

Search our weather history database for the weather conditions in past years. The results will help you decide how hot, cold, wet, or windy it might be!

Date:

Astronomy

Mar. 18, 2014 Rise Set
Actual Time 7:31 AM CDT 7:34 PM CDT
Civil Twilight 7:03 AM CDT 8:02 PM CDT
Nautical Twilight 6:31 AM CDT 8:34 PM CDT
Astronomical Twilight 5:58 AM CDT 9:07 PM CDT
Moon 9:54 PM CDT (3/18) 8:19 AM CDT (3/18)
Length of Visible Light 12h 58m
Length of Day
12h 03m
Waning Gibbous, 96% of the Moon is Illuminated
Mar 18
Waning Gibbous
Mar 23
Last Quarter
Mar 30
New
Apr 7
First Quarter
Apr 15
Full

Hourly Weather History & Observations

Time (CDT) Temp. Windchill Dew Point Humidity Pressure Visibility Wind Dir Wind Speed Gust Speed Precip Events Conditions
12:15 AM 46.6 °F - 28.6 °F 50% 29.44 in 10.0 mi SSE 21.9 mph 27.6 mph N/A   Clear
12:35 AM 46.4 °F 39.0 °F 28.4 °F 50% 29.43 in 10.0 mi SSE 19.6 mph 29.9 mph N/A   Clear
12:55 AM 45.7 °F 37.4 °F 28.6 °F 51% 29.44 in 10.0 mi SSE 23.0 mph 29.9 mph N/A   Clear
1:15 AM 45.5 °F 38.1 °F 28.6 °F 52% 29.43 in 10.0 mi SSE 18.4 mph 26.5 mph N/A   Clear
1:35 AM 45.0 °F 37.4 °F 28.4 °F 52% 29.43 in 10.0 mi SSE 18.4 mph - N/A   Clear
1:55 AM 44.6 °F 36.4 °F 28.2 °F 53% 29.44 in 10.0 mi South 20.7 mph 27.6 mph N/A   Clear
2:15 AM 44.4 °F 36.4 °F 27.9 °F 52% 29.43 in 10.0 mi South 19.6 mph 26.5 mph N/A   Clear
2:35 AM 43.7 °F 35.7 °F 27.5 °F 53% 29.43 in 10.0 mi SSE 18.4 mph - N/A   Clear
2:55 AM 43.2 °F 35.3 °F 27.5 °F 54% 29.43 in 10.0 mi SSE 17.3 mph 24.2 mph N/A   Clear
3:15 AM 42.3 °F 34.8 °F 27.5 °F 56% 29.43 in 10.0 mi SSE 15.0 mph - N/A   Clear
3:35 AM 41.4 °F 33.6 °F 27.9 °F 59% 29.42 in 10.0 mi SSE 15.0 mph - N/A   Clear
3:55 AM 41.0 °F 33.5 °F 28.0 °F 60% 29.41 in 10.0 mi SSE 13.8 mph 20.7 mph N/A   Clear
4:15 AM 40.8 °F 32.6 °F 27.9 °F 60% 29.41 in 10.0 mi SSE 16.1 mph 19.6 mph N/A   Clear
4:35 AM 40.6 °F 32.0 °F 27.5 °F 59% 29.40 in 10.0 mi SSE 17.3 mph 20.7 mph N/A   Clear
4:55 AM 41.2 °F 33.7 °F 27.0 °F 57% 29.40 in 10.0 mi SSE 13.8 mph - N/A   Clear
5:15 AM 41.0 °F 33.9 °F 26.4 °F 56% 29.42 in 10.0 mi SSE 12.7 mph - N/A   Clear
5:35 AM 41.2 °F 36.0 °F 26.1 °F 55% 29.42 in 10.0 mi SSE 8.1 mph - N/A   Clear
5:55 AM 41.2 °F 36.6 °F 25.7 °F 54% 29.43 in 10.0 mi SSE 6.9 mph - N/A   Clear
6:15 AM 40.5 °F 37.3 °F 25.5 °F 55% 29.43 in 10.0 mi SE 4.6 mph - N/A   Clear
6:35 AM 39.2 °F 34.2 °F 25.3 °F 58% 29.43 in 10.0 mi ESE 6.9 mph - N/A   Clear
6:55 AM 39.0 °F 34.0 °F 25.3 °F 58% 29.43 in 10.0 mi SE 6.9 mph - N/A   Clear
7:15 AM 38.1 °F 32.9 °F 25.5 °F 61% 29.43 in 10.0 mi East 6.9 mph - N/A   Clear
7:35 AM 37.6 °F 31.0 °F 25.3 °F 61% 29.44 in 10.0 mi ESE 9.2 mph - N/A   Clear
7:55 AM 37.8 °F 32.5 °F 25.5 °F 61% 29.44 in 10.0 mi ESE 6.9 mph - N/A   Clear
8:15 AM 37.4 °F 32.1 °F 25.5 °F 62% 29.44 in 10.0 mi East 6.9 mph - N/A   Clear
8:35 AM 38.5 °F 32.7 °F 25.7 °F 60% 29.44 in 10.0 mi East 8.1 mph - N/A   Clear
8:55 AM 40.1 °F 34.7 °F 25.7 °F 56% 29.44 in 10.0 mi East 8.1 mph - N/A   Clear
9:15 AM 41.4 °F 35.7 °F 26.1 °F 55% 29.44 in 10.0 mi ESE 9.2 mph - N/A   Clear
9:35 AM 43.7 °F 36.9 °F 26.4 °F 51% 29.44 in 10.0 mi SE 13.8 mph - N/A   Clear
9:55 AM 45.1 °F 39.9 °F 27.0 °F 49% 29.44 in 10.0 mi SE 10.4 mph 18.4 mph N/A   Clear
10:15 AM 46.9 °F - 27.5 °F 47% 29.45 in 10.0 mi SE 13.8 mph - N/A   Clear
10:35 AM 47.3 °F - 27.9 °F 47% 29.45 in 10.0 mi SE 12.7 mph 18.4 mph N/A   Clear
10:55 AM 48.4 °F - 28.0 °F 45% 29.45 in 10.0 mi SSE 13.8 mph 17.3 mph N/A   Clear
11:15 AM 49.6 °F - 28.6 °F 44% 29.45 in 10.0 mi SE 11.5 mph - N/A   Clear
11:35 AM 47.5 °F - 28.4 °F 48% 29.45 in 10.0 mi SE 11.5 mph - N/A   Clear
11:55 AM 47.5 °F - 29.1 °F 49% 29.46 in 10.0 mi SSE 9.2 mph - N/A   Clear
12:15 PM 47.3 °F - 29.1 °F 49% 29.45 in 10.0 mi ESE 5.8 mph - N/A   Clear
12:35 PM 50.9 °F - 29.5 °F 44% 29.45 in 10.0 mi Calm Calm - N/A   Clear
12:55 PM 50.4 °F - 29.1 °F 44% 29.46 in 10.0 mi South 4.6 mph - N/A   Clear
1:15 PM 51.4 °F - 29.1 °F 42% 29.46 in 10.0 mi Calm Calm - N/A   Clear
1:35 PM 53.2 °F - 29.3 °F 40% 29.45 in 7.0 mi East 6.9 mph - N/A   Clear
1:55 PM 53.2 °F - 29.3 °F 40% 29.45 in 10.0 mi ESE 4.6 mph - N/A   Scattered Clouds
2:15 PM 53.2 °F - 29.3 °F 40% 29.46 in 10.0 mi NNW 4.6 mph - N/A   Overcast
2:35 PM 52.2 °F - 29.5 °F 42% 29.46 in 10.0 mi NNW 4.6 mph - N/A   Overcast
2:55 PM 52.2 °F - 29.1 °F 41% 29.47 in 10.0 mi North 4.6 mph - N/A   Overcast
3:15 PM 51.8 °F - 29.3 °F 42% 29.47 in 10.0 mi North 5.8 mph - N/A   Overcast
3:35 PM 51.4 °F - 29.3 °F 43% 29.47 in 10.0 mi North 10.4 mph - N/A   Overcast
3:55 PM 51.4 °F - 29.8 °F 44% 29.48 in 10.0 mi North 6.9 mph - N/A   Overcast
4:15 PM 51.4 °F - 30.2 °F 44% 29.49 in 10.0 mi North 6.9 mph - N/A   Overcast
4:35 PM 52.3 °F - 30.9 °F 44% 29.49 in 10.0 mi North 5.8 mph - N/A   Overcast
4:55 PM 51.8 °F - 30.2 °F 44% 29.50 in 10.0 mi NNW 13.8 mph 18.4 mph N/A   Overcast
5:15 PM 50.2 °F - 28.4 °F 43% 29.51 in 10.0 mi North 15.0 mph - N/A   Overcast
5:35 PM 50.0 °F - 28.2 °F 43% 29.51 in 10.0 mi North 15.0 mph 19.6 mph N/A   Overcast
5:55 PM 49.5 °F - 28.4 °F 44% 29.52 in 10.0 mi NNW 13.8 mph - N/A   Overcast
6:15 PM 49.1 °F - 29.3 °F 46% 29.54 in 10.0 mi NNW 16.1 mph 23.0 mph N/A   Overcast
6:35 PM 44.1 °F 36.8 °F 33.3 °F 66% 29.57 in 10.0 mi NNW 16.1 mph 26.5 mph N/A Rain Light Rain
6:55 PM 42.8 °F 33.3 °F 33.3 °F 69% 29.58 in 10.0 mi NNW 24.2 mph 28.8 mph N/A Rain Light Rain
7:15 PM 41.7 °F 32.3 °F 33.3 °F 72% 29.60 in 10.0 mi NNW 21.9 mph 33.4 mph N/A Rain Light Rain
7:35 PM 39.0 °F 27.6 °F 32.4 °F 77% 29.61 in 7.0 mi NNW 27.6 mph 34.5 mph N/A   Light Drizzle
7:55 PM 36.7 °F 25.1 °F 32.0 °F 83% 29.63 in 7.0 mi NNW 24.2 mph 36.8 mph N/A   Light Drizzle
8:15 PM 35.1 °F 22.5 °F 31.8 °F 88% 29.66 in 7.0 mi NNW 26.5 mph 36.8 mph N/A Snow Light Snow
8:35 PM 34.2 °F 22.1 °F 31.5 °F 90% 29.68 in 4.0 mi NNW 23.0 mph 36.8 mph N/A Snow Light Snow
8:55 PM 33.4 °F 20.6 °F 31.1 °F 91% 29.69 in 1.8 mi NNW 25.3 mph 38.0 mph N/A Snow Light Snow
9:15 PM 33.3 °F 20.3 °F 31.1 °F 92% 29.71 in 1.5 mi NNW 25.3 mph 36.8 mph N/A Snow Light Snow
9:35 PM 33.3 °F 21.5 °F 31.1 °F 92% 29.72 in 2.0 mi NNW 20.7 mph 32.2 mph N/A Snow Light Snow
9:55 PM 33.4 °F 22.0 °F 31.5 °F 92% 29.73 in 2.5 mi NNW 19.6 mph 27.6 mph N/A Snow Light Snow
10:15 PM 33.1 °F 20.9 °F 31.1 °F 92% 29.75 in 2.5 mi NNW 21.9 mph 27.6 mph N/A Snow Light Snow
10:35 PM 32.7 °F 21.1 °F 30.7 °F 92% 29.76 in 1.8 mi NNW 19.6 mph 29.9 mph N/A Snow Light Snow
10:55 PM 32.2 °F 20.4 °F 30.2 °F 92% 29.77 in 1.0 mi NNW 19.6 mph 31.1 mph N/A Snow Light Snow
11:15 PM 32.2 °F 21.4 °F 30.2 °F 92% 29.77 in 1.0 mi NNW 16.1 mph 24.2 mph N/A Snow Light Snow
11:35 PM 32.0 °F 20.5 °F 29.8 °F 92% 29.78 in 1.5 mi NNW 18.4 mph 27.6 mph N/A Snow Light Snow
11:55 PM 32.0 °F 20.1 °F 29.3 °F 90% 29.78 in 1.2 mi NNW 19.6 mph 27.6 mph N/A Snow Light Snow